DW3733 Luzzi (cosenza) IT current weather conditions

sailwx.info

Wind from 180

Air temperature 20.6° C
Dewpoint 17.9° C

Last reported at 2016-Jul-27 02:53 UTC.
Time now 2016-Jul-27 03:48 UTC

Location: N 39°27' E 016°16'.
View on Google Maps.

See reports from other nearby stations

  
Tides and Currents Weather Stations Pressure Air Temp Water Temp Dewpoint Dewpoint Depression Visibility Wind Speed Wind Dir Waves Ship Positions
date/time (UTC)wind fromknots sea level pressurealtimeterstation pressurevisibilityair tempwater tempwave heightnotes
2016-Jul-27 02:53 180 20.6
2016-Jul-27 02:43 090 20.6
2016-Jul-27 02:33 014 0 gusting 1 20.0
2016-Jul-27 02:23 090 0 gusting 2 20.0
2016-Jul-27 02:13 054 0 gusting 1 20.0
2016-Jul-27 02:03 090 0 gusting 2 20.0
2016-Jul-27 01:53 057 1 gusting 2 20.0
2016-Jul-27 01:43 090 0 gusting 1 20.0
2016-Jul-27 01:33 090 0 gusting 2 20.6
2016-Jul-27 01:23 090 20.6
2016-Jul-27 01:13 045 0 gusting 1 20.6
2016-Jul-27 01:03 117 0 gusting 2 20.6
2016-Jul-27 00:53 090 0 gusting 2 21.1
2016-Jul-27 00:43 090 21.1
2016-Jul-27 00:33 113 1 gusting 2 21.1
2016-Jul-27 00:23 090 0 gusting 2 21.1
2016-Jul-27 00:13 090 0 gusting 2 21.1
2016-Jul-27 00:03 090 0 gusting 2 21.1
2016-Jul-26 23:53 090 1 gusting 2 21.1
2016-Jul-26 23:43 090 0 gusting 2 21.7
2016-Jul-26 23:33 090 0 gusting 1 21.7
2016-Jul-26 23:23 090 0 gusting 1 22.2
2016-Jul-26 23:13 087 0 gusting 2 22.8
2016-Jul-26 23:03 088 23.3
2016-Jul-26 22:53 210 23.3
2016-Jul-26 22:43 225 0 gusting 2 23.3
2016-Jul-26 22:33 171 1 gusting 2 22.8
2016-Jul-26 22:23 090 0 gusting 1 22.8
2016-Jul-26 22:13 090 0 gusting 1 22.2
2016-Jul-26 22:03 090 0 gusting 1 22.8
2016-Jul-26 21:53 045 0 gusting 2 23.3
2016-Jul-26 21:43 083 0 gusting 2 23.9
2016-Jul-26 21:33 137 0 gusting 2 24.4
2016-Jul-26 21:23 135 0 gusting 2 24.4
2016-Jul-26 21:13 103 0 gusting 2 25.0
2016-Jul-26 21:03 192 2 gusting 5 25.0
2016-Jul-26 20:53 206 2 gusting 4 25.0
2016-Jul-26 20:43 254 1 gusting 4 25.0
2016-Jul-26 20:33 233 25.0
2016-Jul-26 20:23 241 1 gusting 2 25.0
2016-Jul-26 20:13 098 0 gusting 2 25.0
2016-Jul-26 20:03 135 0 gusting 2 25.6
2016-Jul-26 19:53 135 0 gusting 2 25.6
2016-Jul-26 19:43 223 0 gusting 2 25.6
2016-Jul-26 19:33 171 1 gusting 2 26.1
2016-Jul-26 19:23 281 0 gusting 5 26.1
2016-Jul-26 19:13 208 1 gusting 5 26.7
2016-Jul-26 19:03 239 1 gusting 5 26.7
2016-Jul-26 18:53 179 2 gusting 5 27.2
2016-Jul-26 18:43 225 1 gusting 5 27.2
2016-Jul-26 18:33 197 2 gusting 4 27.2
2016-Jul-26 18:23 218 2 gusting 5 27.2
2016-Jul-26 18:13 200 1 gusting 5 27.2
2016-Jul-26 18:03 115 1 gusting 5 27.8
2016-Jul-26 17:43 112 2 gusting 5 27.8
2016-Jul-26 17:33 223 2 gusting 6 27.8
2016-Jul-26 17:23 180 2 gusting 6 27.8
2016-Jul-26 17:13 214 1 gusting 7 27.8
2016-Jul-26 17:03 225 3 gusting 8 28.3
2016-Jul-26 16:53 179 1 gusting 8 28.3
2016-Jul-26 16:43 209 3 gusting 7 28.3
2016-Jul-26 16:33 165 4 gusting 8 28.3
2016-Jul-26 16:23 196 4 gusting 8 28.3
2016-Jul-26 16:13 179 4 gusting 8 28.9
2016-Jul-26 16:03 204 4 gusting 8 28.9
2016-Jul-26 15:53 054 4 gusting 11 28.9
2016-Jul-26 15:43 186 6 gusting 11 28.9
2016-Jul-26 15:33 199 4 gusting 7 28.9
2016-Jul-26 15:23 191 3 gusting 6 28.3
2016-Jul-26 15:13 198 3 gusting 8 27.8
2016-Jul-26 15:03 212 5 gusting 8 27.8
2016-Jul-26 14:53 222 5 gusting 11 27.2
2016-Jul-26 14:43 225 6 gusting 11 27.2
2016-Jul-26 14:33 204 6 gusting 12 27.2
2016-Jul-26 14:23 180 5 gusting 13 27.2
2016-Jul-26 14:13 216 6 gusting 14 26.7
2016-Jul-26 14:03 180 10 gusting 17 27.2
2016-Jul-26 13:53 225 8 gusting 17 27.2
2016-Jul-26 13:43 199 8 gusting 20 27.2
2016-Jul-26 13:33 214 6 gusting 18 27.8
2016-Jul-26 13:23 203 6 gusting 17 28.9
2016-Jul-26 13:13 213 6 gusting 18 29.4
2016-Jul-26 13:03 230 8 gusting 17 30.0
2016-Jul-26 12:53 183 8 gusting 15 30.6
2016-Jul-26 12:43 241 4 gusting 11 31.1
2016-Jul-26 12:33 135 1 gusting 6 33.3
2016-Jul-26 12:23 357 4 gusting 11 32.8
2016-Jul-26 12:13 33.3
2016-Jul-26 12:03 33.3
2016-Jul-26 11:53 319 3 gusting 7 32.8
2016-Jul-26 11:43 340 1 gusting 6 32.8
2016-Jul-26 11:33 180 1 gusting 5 32.8
2016-Jul-26 11:23 020 2 gusting 5 32.8
2016-Jul-26 11:13 271 0 gusting 4 32.8
2016-Jul-26 11:03 225 1 gusting 5 32.2
2016-Jul-26 10:53 334 0 gusting 6 31.7
2016-Jul-26 10:43 135 1 gusting 4 31.7
2016-Jul-26 10:33 331 1 gusting 5 31.1
2016-Jul-26 10:23 31.7
2016-Jul-26 10:13 336 1 gusting 6 31.7
2016-Jul-26 10:03 135 0 gusting 4 31.1
2016-Jul-26 09:53 203 1 gusting 5 30.6
2016-Jul-26 09:43 065 1 gusting 6 30.6
2016-Jul-26 09:33 30.0
2016-Jul-26 09:23 263 1 gusting 6 29.4
2016-Jul-26 09:13 29.4
2016-Jul-26 09:03 234 1 gusting 5 29.4
2016-Jul-26 08:53 134 1 gusting 5 28.9
2016-Jul-26 08:43 176 0 gusting 4 28.9
2016-Jul-26 08:33 180 3 gusting 5 28.3
2016-Jul-26 08:23 200 1 gusting 5 27.8
2016-Jul-26 08:13 004 0 gusting 1 27.2
2016-Jul-26 08:03 270 0 gusting 4 26.7
2016-Jul-26 07:53 183 1 gusting 4 26.7
2016-Jul-26 07:43 354 0 gusting 4 26.1
2016-Jul-26 07:33 146 0 gusting 2 25.6
2016-Jul-26 07:23 207 0 gusting 2 25.6
2016-Jul-26 07:13 195 0 gusting 2 25.6
2016-Jul-26 07:03 311 0 gusting 2 25.6
2016-Jul-26 06:53 045 0 gusting 2 25.0
2016-Jul-26 06:43 135 0 gusting 2 24.4
2016-Jul-26 06:33 207 0 gusting 2 23.9
2016-Jul-26 06:23 23.3
2016-Jul-26 06:13 133 0 gusting 2 23.3
2016-Jul-26 06:03 175 0 gusting 4 22.8
2016-Jul-26 05:53 135 2 gusting 4 22.2
2016-Jul-26 05:43 171 1 gusting 4 22.2
2016-Jul-26 05:33 156 1 gusting 2 21.7
2016-Jul-26 05:23 21.7
2016-Jul-26 05:13 204 0 gusting 1 20.6
2016-Jul-26 05:03 055 0 gusting 0 20.6
2016-Jul-26 04:53 045 20.6
2016-Jul-26 04:43 045 20.6
2016-Jul-26 04:33 090 20.0
2016-Jul-26 04:23 332 20.0
2016-Jul-26 04:13 090 20.0
2016-Jul-26 04:03 315 19.4
2016-Jul-26 03:53 064 0 gusting 2 19.4
2016-Jul-26 03:43 135 0 gusting 2 19.4
2016-Jul-26 03:33 090 1 gusting 2 20.0
2016-Jul-26 03:23 20.6
2016-Jul-26 03:13 178 20.6
2016-Jul-26 03:03 001 20.6
2016-Jul-26 02:53 090 0 gusting 1 21.1
2016-Jul-26 02:43 064 0 gusting 1 21.1
2016-Jul-26 02:33 090 0 gusting 1 21.1
2016-Jul-26 02:23 225 21.1
2016-Jul-26 02:13 090 0 gusting 1 21.1
2016-Jul-26 02:03 090 0 gusting 1 21.7
2016-Jul-26 01:53 161 21.7
2016-Jul-26 01:43 318 0 gusting 1 21.7
2016-Jul-26 01:33 036 21.1
2016-Jul-26 01:23 090 1 gusting 2 21.1
2016-Jul-26 01:13 058 21.1
2016-Jul-26 01:03 090 0 gusting 1 21.1
2016-Jul-26 00:53 065 0 gusting 1 21.1
2016-Jul-26 00:43 090 0 gusting 2 21.7
2016-Jul-26 00:33 046 21.7
2016-Jul-26 00:23 045 21.7
2016-Jul-26 00:13 090 0 gusting 1 21.7
2016-Jul-26 00:03 090 21.7
2016-Jul-25 23:53 090 0 gusting 2 21.7
2016-Jul-25 23:43 160 0 gusting 1 22.2
2016-Jul-25 23:33 234 21.7
2016-Jul-25 23:23 045 0 gusting 1 21.7
2016-Jul-25 23:13 090 0 gusting 1 22.2
2016-Jul-25 23:03 069 0 gusting 1 22.2
2016-Jul-25 22:53 040 0 gusting 1 22.8
2016-Jul-25 22:43 027 23.3
2016-Jul-25 22:33 23.3
2016-Jul-25 22:23 079 0 gusting 2 23.3
2016-Jul-25 22:13 035 1 gusting 2 23.3
2016-Jul-25 22:03 090 0 gusting 2 23.3
2016-Jul-25 21:53 014 1 gusting 2 23.3
2016-Jul-25 21:43 045 1 gusting 2 23.9
2016-Jul-25 21:33 057 0 gusting 2 23.9
2016-Jul-25 21:23 079 0 gusting 2 24.4
2016-Jul-25 21:13 012 24.4
2016-Jul-25 21:03 086 0 gusting 2 24.4
2016-Jul-25 20:53 056 25.0
2016-Jul-25 20:43 288 0 gusting 4 25.6
2016-Jul-25 20:33 072 0 gusting 1 25.6
2016-Jul-25 20:23 145 0 gusting 2 25.6
2016-Jul-25 20:13 25.6
2016-Jul-25 20:03 26.1
2016-Jul-25 19:53 203 1 gusting 2 25.6
2016-Jul-25 19:43 090 25.6
2016-Jul-25 19:33 090 0 gusting 1 26.1
2016-Jul-25 19:23 080 0 gusting 4 26.1
2016-Jul-25 19:13 26.7
2016-Jul-25 19:03 016 2 gusting 2 26.7
2016-Jul-25 18:53 017 1 gusting 5 26.7
2016-Jul-25 18:43 058 1 gusting 4 27.2
2016-Jul-25 18:33 231 1 gusting 2 27.8
2016-Jul-25 18:23 28.3
2016-Jul-25 18:13 307 28.3
2016-Jul-25 18:03 225 28.3
2016-Jul-25 17:53 28.3
2016-Jul-25 17:43 045 0 gusting 2 28.3
2016-Jul-25 17:33 022 0 gusting 2 28.3
2016-Jul-25 17:23 135 0 gusting 4 28.3
2016-Jul-25 17:13 146 1 gusting 5 28.9
2016-Jul-25 17:03 181 1 gusting 5 28.9
2016-Jul-25 16:53 238 2 gusting 6 28.9
2016-Jul-25 16:43 257 1 gusting 5 29.4
2016-Jul-25 16:33 324 0 gusting 4 30.0
2016-Jul-25 16:23 332 1 gusting 4 30.0
2016-Jul-25 16:13 319 1 gusting 5 30.6
2016-Jul-25 16:03 042 1 gusting 6 30.6
2016-Jul-25 15:53 123 2 gusting 8 31.7
2016-Jul-25 15:43 180 1 gusting 7 31.7
2016-Jul-25 15:33 160 2 gusting 8 32.2
2016-Jul-25 15:23 219 1 gusting 6 32.8
2016-Jul-25 15:13 32.2
2016-Jul-25 15:03 045 1 gusting 5 32.2
2016-Jul-25 14:53 211 2 gusting 7 32.2
2016-Jul-25 14:43 315 5 gusting 11 32.2
2016-Jul-25 14:33 315 3 gusting 6 32.8
2016-Jul-25 14:23 053 2 gusting 8 33.3
2016-Jul-25 14:13 097 2 gusting 6 33.9
2016-Jul-25 14:03 180 2 gusting 11 33.9
2016-Jul-25 13:53 266 1 gusting 6 34.4
2016-Jul-25 13:43 281 3 gusting 8 34.4
2016-Jul-25 13:33 33.9
2016-Jul-25 13:23 304 4 gusting 11 34.4
2016-Jul-25 13:13 206 5 gusting 14 34.4
2016-Jul-25 13:03 207 3 gusting 8 34.4
2016-Jul-25 12:53 304 2 gusting 10 34.4
2016-Jul-25 12:43 337 2 gusting 11 34.4
2016-Jul-25 12:33 243 5 gusting 8 35.0
2016-Jul-25 12:23 302 1 gusting 6 35.0
2016-Jul-25 12:13 292 4 gusting 7 35.0
2016-Jul-25 12:03 135 1 gusting 7 35.0
2016-Jul-25 11:53 225 1 gusting 11 34.4
2016-Jul-25 11:43 006 0 gusting 6 34.4
2016-Jul-25 11:33 042 0 gusting 8 33.9
2016-Jul-25 11:23 297 5 gusting 8 33.3
2016-Jul-25 11:13 346 1 gusting 2 33.9
2016-Jul-25 11:03 33.9
2016-Jul-25 10:53 180 3 gusting 6 33.9
2016-Jul-25 10:43 265 1 gusting 5 33.9
2016-Jul-25 10:33 33.9
2016-Jul-25 10:23 350 1 gusting 5 33.3
2016-Jul-25 10:13 292 0 gusting 5 32.8
2016-Jul-25 10:03 090 2 gusting 5 32.8
2016-Jul-25 09:53 019 2 gusting 5 32.8
2016-Jul-25 09:43 009 1 gusting 5 33.3
2016-Jul-25 09:33 219 1 gusting 5 32.8
2016-Jul-25 09:23 298 0 gusting 2 32.2
2016-Jul-25 09:13 045 0 gusting 4 31.7
2016-Jul-25 09:03 169 1 gusting 5 31.7
2016-Jul-25 08:53 100 0 gusting 5 31.7
2016-Jul-25 08:43 173 1 gusting 5 31.1
2016-Jul-25 08:33 180 2 gusting 5 30.6
2016-Jul-25 08:23 184 1 gusting 4 30.0
2016-Jul-25 08:13 191 1 gusting 4 30.0
2016-Jul-25 08:03 270 0 gusting 5 30.0
2016-Jul-25 07:53 211 2 gusting 6 29.4
2016-Jul-25 07:43 246 1 gusting 6 29.4
2016-Jul-25 07:33 128 0 gusting 5 29.4
2016-Jul-25 07:23 178 2 gusting 5 29.4
2016-Jul-25 07:13 225 2 gusting 5 28.9
2016-Jul-25 07:03 225 0 gusting 6 28.3
2016-Jul-25 06:53 180 1 gusting 6 27.8
2016-Jul-25 06:43 201 0 gusting 2 27.8
2016-Jul-25 06:33 090 0 gusting 2 26.7
2016-Jul-25 06:13 225 1 gusting 4 25.6
2016-Jul-25 06:03 25.0
2016-Jul-25 05:53 133 1 gusting 4 24.4
2016-Jul-25 05:43 157 1 gusting 5 23.9
2016-Jul-25 05:33 180 0 gusting 4 23.3
2016-Jul-25 05:23 209 0 gusting 2 22.8
2016-Jul-25 05:13 045 0 gusting 1 22.2
2016-Jul-25 05:03 336 0 gusting 0 21.1
2016-Jul-25 04:53 022 0 gusting 5 20.6
2016-Jul-25 04:43 219 0 gusting 2 19.4
2016-Jul-25 04:33 090 1 gusting 2 18.9
2016-Jul-25 04:23 062 1 gusting 2 18.9
2016-Jul-25 04:13 090 0 gusting 2 19.4
2016-Jul-25 04:03 090 0 gusting 2 19.4
2016-Jul-25 03:53 18.9
2016-Jul-25 03:43 090 2 gusting 2 19.4
2016-Jul-25 03:33 054 0 gusting 2 19.4
2016-Jul-25 03:23 090 1 gusting 2 18.9
2016-Jul-25 03:13 090 1 gusting 2 19.4
2016-Jul-25 03:03 064 0 gusting 2 19.4